1484172000.21,53355,4.75,71800.8,-12.53,-27.35,-26.65,0,*64
1484172001.5,53356,4.75,71796.0,-12.53,-27.35,-26.71,0,*62
1484172002.77,53357,4.75,71802.3,-12.53,-27.29,-26.81,0,*61
1484172004.05,53358,4.75,71804.5,-12.53,-27.29,-26.71,0,*61
1484172005.29,53359,4.75,71800.5,-12.55,-27.29,-26.71,0,*66
1484172006.53,53360,4.75,71802.0,-12.55,-27.13,-26.55,0,*63
1484172007.79,53361,4.75,71800.8,-12.53,-27.19,-26.49,0,*63
1484172009.08,53362,4.75,71796.0,-12.53,-27.19,-26.55,0,*6D
1484172010.34,53363,4.75,71796.8,-12.53,-27.19,-26.65,0,*6F
1484172011.63,53364,4.75,71798.0,-12.53,-27.35,-26.71,0,*63
1484172012.92,53365,4.75,71800.0,-12.53,-27.35,-26.71,0,*62
1484172014.18,53366,4.75,71796.0,-12.55,-27.35,-26.71,0,*67
1484172015.43,53367,4.75,71800.3,-12.55,-27.29,-26.81,0,*64
1484172016.7,53368,4.75,71802.8,-12.55,-27.35,-26.81,0,*66
1484172017.96,53369,4.75,71806.8,-12.53,-27.19,-26.65,0,*65
1484172019.2,53370,4.75,71810.5,-12.55,-27.13,-26.55,0,*62
1484172020.44,53371,4.75,71810.8,-12.55,-27.19,-26.65,0,*6A
1484172021.68,53372,4.75,71808.5,-12.55,-27.13,-26.55,0,*60
1484172022.92,53373,4.75,71804.5,-12.53,-27.03,-26.49,0,*6B
1484172024.23,53374,4.75,71796.0,-12.53,-26.97,-26.33,0,*6D
1484172025.53,53375,4.75,71798.3,-12.53,-26.81,-26.33,0,*6B
1484172026.78,53376,4.75,71802.0,-12.53,-27.03,-26.39,0,*69
1484172028.02,53377,4.75,71804.0,-12.53,-27.03,-26.49,0,*6F
1484172029.26,53378,4.75,71800.8,-12.53,-27.13,-26.49,0,*61
1484172030.53,53379,4.75,71796.5,-12.53,-26.97,-26.49,0,*6D
1484172031.78,53380,4.75,71796.0,-12.53,-27.03,-26.49,0,*67
1484172033.01,53381,4.75,71798.8,-12.53,-27.13,-26.49,0,*67
1484172034.25,53382,4.75,71804.3,-12.53,-27.13,-26.49,0,*64
1484172035.49,53383,4.75,71792.5,-12.55,-27.13,-26.55,0,*6E
1484172036.74,53384,4.75,71786.5,-12.53,-27.03,-26.49,0,*63
1484172038.01,53385,4.75,71796.3,-12.53,-26.97,-26.49,0,*6E
1484172039.25,53386,4.75,71802.5,-12.53,-27.03,-26.49,0,*61
1484172040.5,53387,4.75,71796.0,-12.55,-26.97,-26.39,0,*6D
1484172041.78,53388,4.75,71776.8,-12.55,-26.81,-26.33,0,*6F
1484172042.99,53389,4.75,71802.3,-12.55,-26.87,-26.49,0,*65
1484172044.26,53390,4.75,71796.5,-12.55,-26.71,-26.13,0,*6B
1484172045.53,53391,4.75,71782.8,-12.53,-26.87,-26.29,0,*6C
1484172046.78,53392,4.75,71800.0,-12.55,-26.87,-26.29,0,*69
1484172048.05,53393,4.75,71804.5,-12.55,-26.81,-26.29,0,*6E
1484172049.33,53394,4.75,71808.0,-12.55,-26.81,-26.29,0,*69
1484172050.6,53395,4.75,71802.0,-12.55,-26.71,-26.17,0,*6A
1484172051.9,53396,4.75,71798.0,-12.53,-26.81,-26.33,0,*66
1484172053.17,53397,4.75,71798.5,-12.53,-26.87,-26.33,0,*61
1484172054.39,53398,4.75,71798.0,-12.55,-26.87,-26.39,0,*62
1484172055.66,53399,4.75,71800.8,-12.53,-26.87,-26.33,0,*6F
1484172056.88,53400,4.75,71792.8,-12.55,-26.87,-26.39,0,*64
1484172058.1,53401,4.75,71798.3,-12.55,-26.87,-26.39,0,*65
1484172059.41,53402,4.75,71808.0,-12.53,-26.97,-26.33,0,*6B
1484172060.68,53403,4.75,71802.3,-12.55,-26.71,-26.17,0,*62
1484172061.95,53404,4.75,71802.3,-12.55,-26.71,-26.33,0,*63
1484172063.24,53405,4.75,71812.0,-12.53,-26.71,-26.29,0,*6F
1484172064.51,53406,4.75,71812.3,-12.55,-26.71,-26.33,0,*61
1484172065.76,53407,4.75,71802.8,-12.55,-26.65,-26.17,0,*63
1484172067.03,53408,4.75,71798.5,-12.55,-26.71,-26.33,0,*6F
1484172068.3,53409,4.75,71788.0,-12.55,-26.71,-26.29,0,*65
1484172069.6,53410,4.75,71776.3,-12.53,-26.71,-26.33,0,*60
1484172070.85,53411,4.75,71780.8,-12.55,-26.65,-26.17,0,*64
1484172072.14,53412,4.75,71772.0,-12.53,-26.71,-26.13,0,*60
1484172073.42,53413,4.75,71770.3,-12.53,-26.65,-26.29,0,*6D
1484172074.72,53414,4.75,71778.5,-12.53,-26.55,-26.13,0,*60
1484172076.01,53415,4.75,71768.8,-12.53,-26.55,-26.13,0,*61
1484172077.26,53416,4.75,71778.3,-12.55,-26.49,-26.13,0,*69
1484172078.54,53417,4.75,71776.8,-12.53,-26.65,-26.13,0,*60
1484172079.83,53418,4.75,71776.3,-12.53,-26.55,-26.17,0,*68
1484172081.13,53419,4.75,71778.5,-12.53,-26.55,-26.33,0,*6F
1484172082.39,53420,4.75,71772.0,-12.53,-26.71,-26.49,0,*6E
1484172083.66,53421,4.75,71780.3,-12.55,-26.71,-26.33,0,*64
1484172084.88,53422,4.75,71794.5,-12.55,-26.87,-26.39,0,*64
1484172086.11,53423,4.75,71792.0,-12.55,-26.65,-26.39,0,*69
1484172087.41,53424,4.75,71798.3,-12.53,-26.55,-26.29,0,*6A
1484172088.68,53425,4.75,71794.0,-12.53,-26.49,-26.29,0,*66
1484172089.95,53426,4.75,71796.5,-12.55,-26.55,-26.29,0,*6E
1484172091.22,53427,4.75,71800.0,-12.55,-26.55,-26.17,0,*62
1484172092.51,53428,4.69,71796.8,-12.53,-26.71,-26.33,0,*6B
1484172093.73,53429,4.75,71794.8,-12.55,-26.65,-26.49,0,*64
1484172095.0,53430,4.75,71796.8,-12.55,-26.55,-26.29,0,*69
1484172096.3,53431,4.75,71800.0,-12.53,-26.71,-26.29,0,*68
1484172097.58,53432,4.75,71798.3,-12.53,-26.65,-26.29,0,*6E
1484172098.85,53433,4.75,71798.5,-12.55,-26.55,-26.33,0,*61
1484172100.12,53434,4.75,71798.0,-12.55,-26.55,-26.33,0,*66
1484172101.39,53435,4.75,71794.8,-12.53,-26.49,-26.29,0,*67
1484172102.64,53436,4.75,71802.0,-12.55,-26.39,-26.17,0,*68
1484172103.91,53437,4.75,71794.0,-12.53,-26.39,-26.13,0,*6B
1484172105.16,53438,4.75,71794.5,-12.55,-26.49,-26.29,0,*6C
1484172106.46,53439,4.75,71796.0,-12.53,-26.55,-26.29,0,*66
1484172107.71,53440,4.75,71798.5,-12.55,-26.49,-26.33,0,*68
1484172108.98,53441,4.75,71790.8,-12.55,-26.55,-26.29,0,*6F
1484172110.23,53442,4.75,71792.5,-12.55,-26.39,-26.33,0,*6D
1484172111.5,53443,4.75,71792.5,-12.53,-26.55,-26.39,0,*6A
1484172112.79,53444,4.75,71794.0,-12.53,-26.55,-26.33,0,*67
1484172114.07,53445,4.75,71798.8,-12.53,-26.49,-26.33,0,*6B
1484172115.34,53446,4.75,71796.8,-12.55,-26.55,-26.29,0,*68
1484172116.59,53447,4.69,71800.0,-12.55,-26.49,-26.33,0,*6F
1484172117.84,53448,4.75,71802.5,-12.55,-26.49,-26.33,0,*60
1484172119.09,53449,4.75,71802.3,-12.55,-26.49,-26.33,0,*61
1484172120.34,53450,4.75,71802.0,-12.55,-26.39,-26.29,0,*65
1484172121.58,53451,4.75,71802.8,-12.55,-26.39,-26.29,0,*64
1484172122.86,53452,4.75,71792.8,-12.53,-26.49,-26.33,0,*6D
1484172124.11,53453,4.75,71790.0,-12.55,-26.39,-26.33,0,*6D
1484172125.36,53454,4.75,71792.5,-12.55,-26.39,-26.33,0,*6A
1484172126.61,53455,4.75,71794.3,-12.55,-26.49,-26.33,0,*6C
1484172127.86,53456,4.75,71790.8,-12.55,-26.49,-26.29,0,*64
1484172129.14,53457,4.75,71798.0,-12.55,-26.33,-26.29,0,*68
1484172130.42,53458,4.75,71792.8,-12.55,-26.33,-26.29,0,*67
1484172131.69,53459,4.75,71800.8,-12.57,-26.39,-26.33,0,*65
1484172132.99,53460,4.75,71802.3,-12.57,-26.33,-26.29,0,*6E
1484172134.26,53461,4.75,71786.8,-12.55,-26.33,-26.17,0,*60
1484172135.52,53462,4.75,71782.8,-12.55,-26.17,-26.03,0,*60
1484172136.78,53463,4.75,71772.3,-12.57,-26.13,-25.87,0,*68
1484172138.05,53464,4.75,71784.8,-12.55,-26.29,-26.17,0,*6E
1484172139.28,53465,4.75,71788.8,-12.55,-26.03,-25.87,0,*6D
1484172140.55,53466,4.75,71788.0,-12.53,-26.13,-26.03,0,*66
1484172141.85,53467,4.75,71794.5,-12.53,-26.29,-26.13,0,*6F
1484172143.13,53468,4.75,71794.5,-12.55,-26.33,-26.33,0,*6F
1484172144.41,53469,4.75,71792.8,-12.55,-26.33,-26.17,0,*68
1484172145.66,53470,4.75,71794.5,-12.55,-26.13,-26.03,0,*67
1484172146.93,53471,4.75,71802.0,-12.55,-26.13,-26.17,0,*63
1484172148.23,53472,4.69,71790.5,-12.53,-26.17,-26.13,0,*66
1484172149.52,53473,4.75,71798.3,-12.53,-26.17,-26.17,0,*63
1484172150.82,53474,4.75,71790.8,-12.53,-26.29,-26.29,0,*64
1484172152.12,53475,4.75,71782.8,-12.53,-26.29,-26.33,0,*6E
1484172153.4,53476,4.75,71788.0,-12.53,-26.39,-26.33,0,*6C
1484172154.65,53477,4.75,71784.5,-12.55,-26.33,-26.39,0,*6B
1484172155.9,53478,4.75,71788.8,-12.55,-26.39,-26.33,0,*64
1484172157.21,53479,4.75,71788.5,-12.53,-26.33,-26.29,0,*62
1484172158.48,53480,4.69,71782.5,-12.55,-26.33,-26.33,0,*69
1484172159.74,53481,4.75,71780.8,-12.55,-26.33,-26.39,0,*62
1484172161.01,53482,4.75,71784.0,-12.55,-26.29,-26.33,0,*60
1484172162.29,53483,4.75,71782.8,-12.55,-26.29,-26.29,0,*6A
1484172163.58,53484,4.75,71784.8,-12.53,-26.29,-26.17,0,*66
1484172164.86,53485,4.75,71794.3,-12.55,-26.29,-26.33,0,*67
1484172166.13,53486,4.75,71790.5,-12.55,-26.29,-26.29,0,*6F
1484172167.4,53487,4.75,71794.5,-12.55,-26.29,-26.33,0,*65
1484172168.71,53488,4.75,71788.0,-12.53,-26.33,-26.33,0,*67
1484172169.99,53489,4.75,71786.8,-12.55,-26.33,-26.33,0,*60
1484172171.26,53490,4.75,71778.8,-12.55,-26.29,-26.29,0,*68
1484172172.53,53491,4.75,71784.3,-12.55,-26.29,-26.29,0,*69
1484172173.83,53492,4.75,71784.5,-12.53,-26.29,-26.29,0,*6C
1484172175.1,53493,4.75,71782.3,-12.55,-26.29,-26.33,0,*60
1484172176.35,53494,4.75,71776.0,-12.55,-26.29,-26.39,0,*6D
1484172177.63,53495,4.75,71768.8,-12.55,-26.29,-26.29,0,*6D
1484172178.92,53496,4.75,71772.8,-12.57,-26.29,-26.33,0,*67
1484172180.19,53497,4.75,71782.0,-12.57,-26.33,-26.49,0,*60
1484172181.47,53498,4.75,71768.0,-12.57,-26.33,-26.39,0,*68
1484172182.74,53499,4.75,71772.3,-12.57,-26.39,-26.33,0,*69
1484172184.02,53500,4.75,71776.5,-12.57,-26.33,-26.39,0,*68
1484172185.32,53501,4.75,71778.3,-12.57,-26.33,-26.33,0,*63
1484172186.62,53502,4.75,71786.8,-12.57,-26.33,-26.33,0,*60
1484172187.92,53503,4.75,71784.0,-12.57,-26.29,-26.29,0,*61
1484172189.19,53504,4.75,71784.5,-12.57,-26.17,-26.39,0,*6A
1484172190.46,53505,4.75,71784.8,-12.57,-26.29,-26.39,0,*66
1484172191.74,53506,4.75,71784.0,-12.57,-26.29,-26.39,0,*65
1484172193.01,53507,4.69,71782.8,-12.57,-26.29,-26.39,0,*64
1484172194.3,53508,4.75,71794.5,-12.57,-26.29,-26.33,0,*61
1484172195.56,53509,4.75,71792.0,-12.59,-26.17,-26.39,0,*69
1484172196.86,53510,4.75,71794.8,-12.57,-26.17,-26.33,0,*65
1484172198.08,53511,4.75,71796.3,-12.59,-26.23,-26.39,0,*67
1484172199.37,53512,4.75,71788.8,-12.57,-26.17,-26.17,0,*61
1484172200.65,53513,4.75,71792.8,-12.59,-26.17,-26.33,0,*68
1484172201.95,53514,4.75,71792.3,-12.57,-26.13,-26.29,0,*6E
1484172203.22,53515,4.75,71798.0,-12.59,-26.17,-26.33,0,*6E
1484172204.52,53516,4.75,71798.0,-12.57,-26.17,-26.29,0,*68
1484172205.82,53517,4.75,71798.5,-12.57,-26.17,-26.33,0,*62
1484172207.04,53518,4.75,71802.5,-12.59,-26.23,-26.39,0,*6E
1484172208.31,53519,4.75,71800.8,-12.57,-26.29,-26.45,0,*60
1484172209.6,53520,4.75,71800.3,-12.57,-26.17,-26.29,0,*6D
1484172210.86,53521,4.75,71804.0,-12.59,-26.33,-26.45,0,*6E
1484172212.13,53522,4.75,71804.5,-12.59,-26.17,-26.33,0,*6A
1484172213.43,53523,4.75,71808.5,-12.57,-26.17,-26.33,0,*65
1484172214.65,53524,4.75,71804.8,-12.59,-26.23,-26.39,0,*61
1484172215.91,53525,4.75,71804.0,-12.59,-26.17,-26.39,0,*67
1484172217.16,53526,4.75,71810.0,-12.59,-26.17,-26.39,0,*64
1484172218.38,53527,4.75,71808.3,-12.59,-26.23,-26.39,0,*62
1484172219.6,53528,4.75,71802.8,-12.59,-26.23,-26.45,0,*66
1484172220.87,53529,4.75,71806.5,-12.57,-26.17,-26.39,0,*65
1484172222.08,53530,4.75,71806.3,-12.59,-26.23,-26.45,0,*6F
1484172223.34,53531,4.75,71800.3,-12.59,-26.17,-26.39,0,*62
1484172224.63,53532,4.75,71802.0,-12.57,-26.13,-26.33,0,*61
1484172225.89,53533,4.75,71802.0,-12.59,-26.17,-26.39,0,*60
1484172227.13,53534,4.75,71800.5,-12.59,-25.91,-26.17,0,*66
1484172228.37,53535,4.75,71798.5,-12.59,-25.91,-26.17,0,*67
1484172229.63,53536,4.75,71794.8,-12.59,-25.75,-26.03,0,*6B
1484172230.85,53537,4.75,71800.3,-12.59,-25.91,-26.07,0,*64
1484172232.08,53538,4.75,71798.0,-12.59,-26.03,-26.07,0,*63
1484172233.3,53539,4.75,71790.5,-12.59,-25.91,-26.03,0,*6E
1484172234.53,53540,4.75,71788.0,-12.59,-25.87,-26.03,0,*67
1484172235.81,53541,4.75,71794.8,-12.57,-25.71,-26.03,0,*61
1484172237.03,53542,4.75,71798.3,-12.59,-25.91,-26.07,0,*66
1484172238.33,53543,4.75,71798.3,-12.57,-25.97,-26.29,0,*63
1484172239.58,53544,4.69,71792.3,-12.59,-26.03,-26.17,0,*69
1484172240.8,53545,4.75,71794.3,-12.59,-26.07,-26.23,0,*6B
1484172242.05,53546,4.75,71792.3,-12.59,-26.07,-26.33,0,*69
1484172243.29,53547,4.75,71794.3,-12.59,-26.23,-26.33,0,*6E
1484172244.55,53548,4.75,71798.3,-12.59,-26.07,-26.33,0,*67
1484172245.84,53549,4.75,71790.8,-12.57,-26.13,-26.33,0,*6D
1484172247.1,53550,4.75,71798.5,-12.59,-26.17,-26.39,0,*65
1484172248.35,53551,4.75,71804.8,-12.59,-26.17,-26.39,0,*64
1484172249.62,53552,4.75,71806.0,-12.65,-26.29,-26.45,0,*6E
1484172250.9,53553,4.75,71814.5,-12.59,-26.33,-26.33,0,*6A
1484172252.13,53554,4.75,71804.5,-12.63,-25.87,-26.03,0,*6B
1484172253.41,53555,4.75,71784.5,-12.59,-25.55,-25.71,0,*6A
1484172254.63,53556,4.75,71764.3,-12.59,-25.61,-25.91,0,*60
1484172255.9,53557,4.75,71746.5,-12.59,-25.45,-25.71,0,*69
1484172257.15,53558,4.75,71738.5,-12.57,-25.49,-25.65,0,*61
1484172258.39,53559,4.75,71726.8,-12.57,-25.39,-25.65,0,*67
1484172259.66,53560,4.69,71732.8,-12.59,-25.45,-25.71,0,*6D
1484172260.94,53561,4.75,71754.8,-12.59,-25.29,-25.75,0,*62
1484172262.21,53562,4.75,71754.0,-12.57,-25.49,-25.71,0,*6D
1484172263.52,53563,4.75,71760.3,-12.57,-25.55,-25.71,0,*61
1484172264.79,53564,4.75,71770.8,-12.57,-25.71,-25.87,0,*69
1484172266.05,53565,4.69,71766.0,-12.57,-25.81,-25.87,0,*67
1484172267.33,53566,4.75,71778.0,-12.57,-25.55,-25.65,0,*61
1484172268.6,53567,4.75,71788.3,-12.57,-25.71,-25.87,0,*6A
1484172269.9,53568,4.75,71786.8,-12.57,-25.81,-25.97,0,*6B
1484172271.17,53569,4.75,71790.8,-12.57,-25.97,-26.03,0,*63
1484172272.44,53570,4.75,71792.5,-12.57,-25.65,-25.81,0,*6F
1484172273.68,53571,4.75,71792.3,-12.57,-25.65,-25.87,0,*68
1484172274.91,53572,4.75,71788.5,-12.59,-25.87,-26.03,0,*66
1484172276.17,53573,4.75,71790.8,-12.57,-25.81,-25.87,0,*60
1484172277.47,53574,4.75,71796.8,-12.57,-25.81,-25.97,0,*66
1484172278.74,53575,4.75,71792.0,-12.57,-25.87,-25.97,0,*61
1484172280.04,53576,4.75,71798.0,-12.57,-25.71,-25.81,0,*6C
1484172281.33,53577,4.75,71796.3,-12.57,-25.81,-25.97,0,*65
1484172282.58,53578,4.75,71796.0,-12.55,-25.87,-25.97,0,*6E
1484172283.88,53579,4.75,71790.5,-12.57,-25.97,-26.13,0,*63
1484172285.15,53580,4.75,71786.5,-12.55,-25.97,-26.13,0,*67
1484172286.42,53581,4.69,71786.3,-12.55,-25.97,-26.17,0,*62
1484172287.72,53582,4.69,71792.3,-12.57,-26.29,-26.17,0,*65
1484172288.96,53583,4.75,71796.0,-12.59,-26.23,-26.33,0,*66
1484172290.26,53584,4.75,71800.0,-12.57,-26.29,-26.33,0,*65
1484172291.55,53585,4.75,71798.3,-12.57,-26.17,-26.29,0,*62
1484172292.85,53586,4.69,71794.5,-12.57,-26.17,-26.29,0,*61
1484172294.15,53587,4.75,71802.3,-12.57,-26.29,-26.29,0,*6D
1484172295.4,53588,4.75,71796.0,-12.59,-26.03,-26.17,0,*69
1484172296.68,53589,4.75,71804.0,-12.57,-25.97,-26.03,0,*6D
1484172297.93,53590,4.69,71796.0,-12.59,-25.61,-25.71,0,*64
1484172299.23,53591,4.69,71788.5,-12.57,-25.55,-25.55,0,*6A
1484172300.5,53592,4.75,71788.5,-12.57,-25.65,-25.71,0,*6C
1484172301.77,53593,4.75,71790.8,-12.57,-25.81,-25.87,0,*6E
1484172303.07,53594,4.75,71788.5,-12.57,-25.97,-25.97,0,*6F
1484172304.3,53595,4.75,71788.5,-12.59,-26.03,-26.03,0,*60
1484172305.58,53596,4.75,71788.8,-12.57,-25.71,-25.87,0,*64
1484172306.87,53597,4.75,71790.0,-12.57,-25.81,-25.81,0,*6C
1484172308.14,53598,4.75,71788.8,-12.57,-25.97,-26.03,0,*6D
1484172309.42,53599,4.75,71788.5,-12.57,-26.03,-25.97,0,*6C
1484172310.7,53600,4.75,71796.5,-12.57,-25.97,-26.03,0,*6F
1484172311.99,53601,4.75,71794.8,-12.57,-25.97,-25.97,0,*60
1484172313.27,53602,4.69,71786.5,-12.53,-25.71,-25.65,0,*62
1484172314.49,53603,4.75,71786.0,-12.55,-25.87,-25.87,0,*60
1484172315.71,53604,4.75,71790.3,-12.55,-25.87,-25.87,0,*67
1484172317.01,53605,4.75,71794.8,-12.57,-25.97,-25.97,0,*64
1484172318.23,53606,4.69,71788.5,-12.55,-25.87,-25.87,0,*65
1484172319.51,53607,4.75,71794.5,-12.53,-25.97,-26.03,0,*6C
1484172320.81,53608,4.75,71792.0,-12.53,-26.13,-26.13,0,*6D
1484172322.06,53609,4.75,71796.3,-12.55,-26.03,-26.13,0,*6B
1484172323.34,53610,4.75,71802.5,-12.57,-26.03,-26.13,0,*61
1484172324.61,53611,4.69,71798.8,-12.55,-26.13,-26.17,0,*67
1484172325.88,53612,4.75,71800.5,-12.57,-26.13,-26.03,0,*63
1484172327.18,53613,4.69,71796.3,-12.57,-26.17,-26.13,0,*67
1484172328.43,53614,4.69,71796.8,-12.57,-26.03,-26.03,0,*64
1484172329.68,53615,4.75,71804.3,-12.59,-26.17,-26.07,0,*6A
1484172330.98,53616,4.75,71804.5,-12.57,-26.13,-26.13,0,*66
1484172332.27,53617,4.75,71800.0,-12.57,-26.13,-26.13,0,*67
1484172333.52,53618,4.69,71800.5,-12.55,-26.03,-26.13,0,*6B
1484172334.78,53619,4.75,71806.3,-12.57,-26.03,-26.03,0,*69
1484172336.05,53620,4.75,71806.8,-12.57,-25.87,-25.97,0,*62
1484172337.35,53621,4.75,71796.8,-12.57,-25.81,-25.71,0,*6D
1484172338.62,53622,4.75,71796.8,-12.57,-25.87,-25.71,0,*68
1484172339.93,53623,4.69,71788.8,-12.57,-25.71,-25.71,0,*60
1484172341.2,53624,4.75,71796.3,-12.57,-25.81,-25.65,0,*6D
1484172342.47,53625,4.69,71792.5,-12.55,-25.81,-25.71,0,*6B
1484172343.74,53626,4.69,71782.0,-12.57,-25.81,-25.65,0,*6F
1484172345.01,53627,4.75,71788.8,-12.57,-25.81,-25.87,0,*62
1484172346.28,53628,4.75,71794.5,-12.57,-25.97,-25.87,0,*6A
1484172347.55,53629,4.69,71794.8,-12.57,-26.03,-25.97,0,*64
1484172348.82,53630,4.69,71798.5,-12.57,-25.97,-25.87,0,*63
1484172350.07,53631,4.75,71802.5,-12.59,-26.13,-26.07,0,*68
1484172351.34,53632,4.69,71802.3,-12.57,-26.13,-26.03,0,*61
1484172352.61,53633,4.75,71806.5,-12.57,-26.13,-25.87,0,*6F
1484172353.89,53634,4.75,71800.5,-12.57,-26.03,-25.97,0,*68
1484172355.18,53635,4.69,71794.5,-12.57,-25.97,-25.81,0,*60
1484172356.46,53636,4.69,71792.0,-12.57,-25.71,-25.65,0,*61
1484172357.73,53637,4.69,71792.8,-12.57,-25.87,-25.81,0,*63
1484172359.03,53638,4.69,71788.5,-12.57,-25.97,-25.71,0,*62
1484172360.28,53639,4.69,71786.0,-12.55,-25.65,-25.55,0,*6A
1484172361.55,53640,4.75,71794.3,-12.57,-25.65,-25.55,0,*66
1484172362.83,53641,4.75,71790.0,-12.55,-25.81,-25.55,0,*6F
1484172364.08,53642,4.75,71786.5,-12.55,-25.71,-25.65,0,*60
1484172365.33,53643,4.69,71788.8,-12.53,-25.87,-25.65,0,*6E
1484172366.58,53644,4.69,71790.0,-12.55,-26.03,-25.81,0,*6A
1484172367.88,53645,4.69,71794.0,-12.53,-25.81,-25.71,0,*6B
1484172369.13,53646,4.75,71798.3,-12.55,-26.13,-25.87,0,*6F
1484172370.39,53647,4.75,71792.0,-12.55,-26.03,-25.71,0,*66
1484172371.66,53648,4.69,71788.5,-12.55,-25.97,-25.71,0,*67
1484172372.91,53649,4.69,71790.8,-12.55,-26.03,-25.81,0,*67
1484172374.19,53650,4.69,71792.5,-12.55,-26.13,-25.81,0,*6E
1484172375.46,53651,4.69,71792.8,-12.55,-26.17,-25.81,0,*6B
1484172376.73,53652,4.69,71796.8,-12.55,-26.13,-25.71,0,*63
1484172378.01,53653,4.75,71796.0,-12.55,-25.97,-25.71,0,*6D
1484172379.29,53654,4.69,71792.8,-12.53,-25.97,-25.65,0,*69
1484172380.54,53655,4.75,71792.5,-12.55,-25.97,-25.65,0,*6E
1484172381.82,53656,4.75,71788.3,-12.53,-25.97,-25.65,0,*6B
1484172383.07,53657,4.75,71788.5,-12.55,-25.97,-25.65,0,*6C
1484172384.35,53658,4.69,71784.3,-12.55,-25.97,-25.71,0,*66
1484172385.6,53659,4.75,71784.8,-12.55,-26.03,-25.71,0,*69
1484172386.84,53660,4.69,71776.0,-12.55,-26.03,-25.65,0,*66
1484172388.09,53661,4.75,71780.3,-12.55,-25.97,-25.65,0,*69
1484172389.37,53662,4.75,71784.8,-12.55,-25.97,-25.71,0,*6F
1484172390.62,53663,4.69,71780.5,-12.55,-26.13,-25.65,0,*64
1484172391.89,53664,4.75,71790.8,-12.55,-26.13,-25.71,0,*66
1484172393.14,53665,4.75,71790.8,-12.55,-26.17,-25.87,0,*6A
1484172394.38,53666,4.75,71788.8,-12.55,-26.17,-25.87,0,*69
1484172395.66,53667,4.69,71788.8,-12.55,-26.17,-25.81,0,*6E
1484172396.93,53668,4.75,71792.5,-12.55,-26.17,-25.71,0,*6E
1484172398.23,53669,4.75,71792.5,-12.57,-26.13,-25.81,0,*66
1484172399.52,53670,4.75,71794.5,-12.57,-26.13,-25.81,0,*6E
1484172400.81,53671,4.75,71790.3,-12.57,-26.13,-25.81,0,*6F
1484172402.1,53672,4.69,71788.8,-12.57,-26.13,-25.81,0,*6C
1484172403.4,53673,4.75,71790.8,-12.57,-26.17,-25.81,0,*69
1484172404.64,53674,4.69,71788.0,-12.59,-26.23,-25.81,0,*67
1484172405.86,53675,4.75,71792.5,-12.59,-26.23,-25.87,0,*60
1484172407.07,53676,4.69,71794.3,-12.59,-26.23,-25.87,0,*63
1484172408.29,53677,4.69,71798.5,-12.59,-26.23,-25.87,0,*62
1484172409.54,53678,4.75,71806.0,-12.57,-26.03,-25.65,0,*6D
1484172410.79,53679,4.75,71804.8,-12.59,-25.91,-25.55,0,*69
1484172412.07,53680,4.69,71798.5,-12.57,-25.71,-25.49,0,*62
1484172413.32,53681,4.75,71794.8,-12.59,-25.91,-25.55,0,*6E
1484172414.57,53682,4.69,71784.3,-12.59,-25.87,-25.55,0,*6A
1484172415.84,53683,4.75,71774.5,-12.57,-25.81,-25.39,0,*69
1484172417.07,53684,4.75,71774.3,-12.59,-25.87,-25.39,0,*66
1484172418.37,53685,4.75,71776.5,-12.57,-25.97,-25.55,0,*62
1484172419.6,53686,4.69,71780.0,-12.59,-26.03,-25.61,0,*66
1484172420.84,53687,4.69,71788.3,-12.59,-26.03,-25.61,0,*67
1484172422.11,53688,4.75,71794.8,-12.59,-26.13,-25.81,0,*67
1484172423.4,53689,4.75,71804.3,-12.57,-26.13,-25.81,0,*68
1484172424.69,53690,4.75,71802.0,-12.59,-26.17,-25.71,0,*65
1484172425.96,53691,4.69,71802.3,-12.59,-26.17,-25.75,0,*60
1484172427.19,53692,4.69,71796.5,-12.59,-25.91,-25.61,0,*6B
1484172428.44,53693,4.69,71796.5,-12.59,-25.55,-25.23,0,*64
1484172429.66,53694,4.69,71794.8,-12.59,-25.23,-24.93,0,*68
1484172430.88,53695,4.69,71792.0,-12.59,-25.39,-25.19,0,*61
1484172432.12,53696,4.75,71800.8,-12.59,-25.45,-25.09,0,*68
1484172433.36,53697,4.69,71792.0,-12.57,-25.35,-25.13,0,*6B
1484172434.64,53698,4.75,71788.8,-12.59,-25.55,-25.29,0,*65
1484172435.91,53699,4.69,71774.8,-12.59,-25.71,-25.45,0,*68
1484172437.16,53700,4.69,71776.0,-12.59,-25.87,-25.45,0,*60
1484172438.4,53701,4.69,71780.8,-12.59,-25.91,-25.45,0,*66
1484172439.65,53702,4.69,71790.0,-12.59,-25.87,-25.29,0,*68
1484172440.92,53703,4.69,71792.5,-12.57,-25.81,-25.35,0,*6C
1484172442.15,53704,4.69,71802.8,-12.59,-26.03,-25.39,0,*60
1484172443.4,53705,4.69,71802.8,-12.57,-25.87,-25.49,0,*67
1484172444.63,53706,4.75,71802.0,-12.59,-25.91,-25.61,0,*67
1484172445.85,53707,4.75,71808.0,-12.59,-25.91,-25.61,0,*66
1484172447.11,53708,4.69,71810.8,-12.59,-26.03,-25.55,0,*66
1484172448.36,53709,4.69,71806.8,-12.59,-25.87,-25.45,0,*69
1484172449.58,53710,4.75,71806.0,-12.59,-25.87,-25.39,0,*6A
1484172450.83,53711,4.69,71802.8,-12.59,-25.91,-25.55,0,*66
1484172452.08,53712,4.69,71804.3,-12.59,-25.91,-25.55,0,*65
1484172453.32,53713,4.69,71804.8,-12.59,-26.03,-25.61,0,*6B
1484172454.58,53714,4.69,71808.3,-12.59,-26.03,-25.55,0,*6B
1484172455.81,53715,4.69,71804.5,-12.59,-25.87,-25.49,0,*68
1484172457.05,53716,4.69,71802.3,-12.59,-25.91,-25.45,0,*60
1484172458.29,53717,4.75,71802.0,-12.59,-25.91,-25.45,0,*61
1484172459.54,53718,4.69,71798.3,-12.59,-25.91,-25.55,0,*6F
1484172460.79,53719,4.69,71796.8,-12.59,-25.91,-25.55,0,*6E
1484172462.04,53720,4.69,71796.8,-12.59,-25.87,-25.45,0,*62
1484172463.29,53721,4.69,71794.0,-12.59,-25.91,-25.55,0,*65
1484172464.54,53722,4.69,71796.5,-12.63,-25.91,-25.55,0,*6F
1484172465.76,53723,4.69,71798.5,-12.63,-25.91,-25.39,0,*64
1484172467.01,53724,4.69,71794.0,-12.59,-25.87,-25.29,0,*6C
1484172468.29,53725,4.69,71790.5,-12.59,-25.71,-25.29,0,*64
1484172469.57,53726,4.69,71790.8,-12.59,-25.71,-25.29,0,*67
1484172470.84,53727,4.69,71788.8,-12.59,-25.75,-25.29,0,*62
1484172472.12,53728,4.69,71786.0,-12.59,-25.71,-25.29,0,*69
1484172473.4,53729,4.69,71784.8,-12.63,-25.71,-25.29,0,*61
1484172474.65,53730,4.69,71786.3,-12.59,-25.71,-25.23,0,*6A
1484172475.9,53731,4.69,71782.5,-12.59,-25.75,-25.39,0,*64
1484172477.14,53732,4.69,71782.3,-12.59,-25.87,-25.45,0,*61
1484172478.37,53733,4.75,71786.8,-12.59,-25.87,-25.39,0,*6B
1484172479.62,53734,4.69,71782.3,-12.63,-25.75,-25.39,0,*68
1484172480.91,53735,4.75,71786.5,-12.65,-25.81,-25.45,0,*6F
1484172482.16,53736,4.69,71778.3,-12.63,-25.75,-25.39,0,*6A
1484172483.42,53737,4.69,71780.8,-12.63,-25.75,-25.39,0,*6B
1484172484.67,53738,4.69,71784.0,-12.59,-25.71,-25.39,0,*69
1484172485.93,53739,4.75,71786.0,-12.65,-25.91,-25.45,0,*62
1484172487.21,53740,4.69,71782.3,-12.65,-25.81,-25.49,0,*61
1484172488.43,53741,4.69,71784.5,-12.63,-25.87,-25.39,0,*67
1484172489.69,53742,4.69,71784.3,-12.63,-25.71,-25.39,0,*6D
1484172490.94,53743,4.69,71788.8,-12.63,-25.71,-25.23,0,*67
1484172492.24,53744,4.75,71794.8,-12.65,-25.75,-25.45,0,*62
1484172493.46,53745,4.69,71792.8,-12.63,-25.61,-25.23,0,*60
1484172494.75,53746,4.69,71796.8,-12.65,-25.75,-25.29,0,*6A
1484172496.03,53747,4.69,71798.8,-12.63,-25.71,-25.29,0,*69
1484172497.25,53748,4.69,71796.0,-12.63,-25.61,-25.23,0,*6D
1484172498.49,53749,4.69,71800.0,-12.65,-25.65,-25.35,0,*69
1484172499.74,53750,4.69,71798.8,-12.63,-25.55,-25.19,0,*6A
1484172500.99,53751,4.69,71796.5,-12.65,-25.49,-25.13,0,*6A
1484172502.24,53752,4.69,71796.8,-12.63,-25.45,-25.09,0,*68
1484172503.49,53753,4.69,71798.0,-12.63,-25.55,-25.19,0,*69
1484172504.74,53754,4.69,71798.8,-12.63,-25.55,-25.19,0,*6E